Flag for U.S.A. Weather past 2 weeks in Sidney, Montana, U.S.A.

Now
43 °F

Clear.


Feels Like: 43 °F
Forecast: 40 / 62 °F
Wind: No wind

Location: Sidney-Richland

Current Time: Oct 26, 2014 at 3:32:44 AM

Latest Report: Oct 26, 2014 at 2:55 AM


Visibility: 10 mi

Pressure: 29.59 "Hg

Humidity: 66%

Dew point: 32 °F

Location of SidneyLocation

Historic Weather in Sidney — Graph

°F

Sidney temperature yesterday

Maximum temperature yesterday: 66 °F (at 2:15 PM)
Minimum temperature yesterday: 36 °F (at 7:15 AM)
Average temperature yesterday: 51 °F

Past Weeks' High & Low Weather Summary

 TemperatureHumidityPressure
High75 °F (Oct 20, 1:55 PM)94% (Oct 16, 6:55 AM)30.25 "Hg (Oct 16, 6:55 AM)
Low30 °F (Oct 14, 6:55 AM)25% (Oct 24, 2:15 PM)29.50 "Hg (Oct 15, 10:35 PM)
Average50 °F65%29.88 "Hg
* Reported Oct 11 2:15 AM — Oct 26 2:35 AM, Sidney, Weather by CustomWeather, © 2014

Note: Actual official high and low records may vary slightly from our data, if they occured in-between our weather recording intervals... More about our weather records

Advertising

Sidney weather history for previous 24 hours

 ConditionsComfort  
Time TempWeatherWind HumidityBarometerVisibility
2:35 AM
Oct 26
46 °FClear.No wind57%29.59 "Hg10 mi
2:15 AM46 °FClear.No wind57%29.59 "Hg10 mi
1:55 AM46 °FClear.No wind57%29.61 "Hg10 mi
1:35 AM46 °FClear.No wind57%29.62 "Hg10 mi
1:15 AM46 °FClear.No wind57%29.64 "Hg10 mi
12:55 AM46 °FClear.No wind57%29.66 "Hg10 mi
12:35 AM46 °FClear.No wind57%29.67 "Hg10 mi
12:15 AM46 °FClear.No wind57%29.68 "Hg10 mi
11:55 PM
Oct 25
46 °FClear.No wind57%29.70 "Hg10 mi
11:35 PM48 °FClear.No wind54%29.72 "Hg10 mi
11:15 PM46 °FClear.No wind57%29.73 "Hg10 mi
10:55 PM48 °FClear.No wind54%29.73 "Hg10 mi
10:35 PM48 °FClear.No wind54%29.75 "Hg10 mi
10:15 PM48 °FClear.No wind50%29.75 "Hg10 mi
9:55 PM50 °FClear.No wind47%29.77 "Hg10 mi
9:35 PM48 °FClear.No wind50%29.78 "Hg10 mi
8:55 PM52 °FClear.No wind44%29.81 "Hg10 mi
8:35 PM50 °FClear.No wind47%29.83 "Hg10 mi
8:15 PM52 °FClear.No wind44%29.83 "Hg10 mi
7:55 PM50 °FClear.No wind47%29.84 "Hg10 mi
7:35 PM52 °FClear.5 mph44%29.85 "Hg10 mi
7:15 PM54 °FClear.7 mph41%29.86 "Hg10 mi
6:55 PM54 °FClear.8 mph41%29.87 "Hg10 mi
6:35 PM54 °FSunny.8 mph41%29.87 "Hg10 mi
6:15 PM55 °FSunny.9 mph38%29.88 "Hg10 mi
5:55 PM57 °FSunny.9 mph36%29.89 "Hg10 mi
5:35 PM61 °FSunny.10 mph34%29.90 "Hg10 mi
5:15 PM64 °FSunny.12 mph28%29.91 "Hg10 mi
4:55 PM64 °FSunny.13 mph28%29.93 "Hg10 mi
4:35 PM66 °FSunny.12 mph28%29.93 "Hg10 mi
4:15 PM66 °FSunny.10 mph28%29.94 "Hg10 mi
3:55 PM66 °FSunny.14 mph28%29.95 "Hg10 mi
3:35 PM66 °FSunny.12 mph28%29.96 "Hg10 mi
3:15 PM66 °FSunny.12 mph28%29.97 "Hg10 mi
2:55 PM66 °FSunny.13 mph28%29.98 "Hg10 mi
2:35 PM66 °FSunny.13 mph28%29.99 "Hg10 mi
2:15 PM66 °FSunny.10 mph28%30.00 "Hg10 mi
1:55 PM64 °FSunny.12 mph30%30.02 "Hg10 mi
1:35 PM64 °FSunny.9 mph30%30.03 "Hg10 mi
1:15 PM64 °FSunny.8 mph28%30.04 "Hg10 mi
12:55 PM64 °FSunny.13 mph28%30.05 "Hg10 mi
12:35 PM63 °FSunny.10 mph32%30.07 "Hg10 mi
12:15 PM61 °FSunny.No wind36%30.08 "Hg10 mi
11:55 AM59 °FSunny.No wind39%30.10 "Hg10 mi
11:35 AM57 °FSunny.5 mph41%30.10 "Hg10 mi
11:15 AM55 °FSunny.3 mph47%30.11 "Hg10 mi
10:55 AM52 °FSunny.3 mph50%30.12 "Hg10 mi
10:35 AM52 °FSunny.No wind50%30.13 "Hg10 mi
10:15 AM48 °FSunny.5 mph62%30.13 "Hg10 mi
9:55 AM46 °FSunny.No wind66%30.14 "Hg10 mi
9:35 AM45 °FSunny.No wind71%30.14 "Hg10 mi
9:15 AM43 °FSunny.No wind76%30.14 "Hg10 mi
8:55 AM43 °FSunny.No wind71%30.14 "Hg10 mi
8:35 AM39 °FSunny.No wind81%30.14 "Hg10 mi
7:55 AM37 °FClear.No wind75%30.14 "Hg10 mi
7:35 AM37 °FClear.No wind75%30.14 "Hg10 mi
7:15 AM36 °FClear.No wind81%30.14 "Hg10 mi
6:55 AM37 °FClear.No wind75%30.14 "Hg10 mi
6:35 AM37 °FClear.No wind81%30.14 "Hg10 mi
5:55 AM43 °FPassing clouds.No wind71%30.13 "Hg10 mi
5:35 AM43 °FOvercast.No wind71%30.13 "Hg10 mi
5:15 AM45 °FPassing clouds.No wind71%30.12 "Hg10 mi
4:55 AM45 °FPassing clouds.No wind66%30.13 "Hg10 mi
4:35 AM45 °FOvercast.No wind66%30.13 "Hg10 mi
4:15 AM45 °FOvercast.No wind66%30.13 "Hg10 mi
3:55 AM45 °FOvercast.No wind66%30.12 "Hg10 mi
3:35 AM45 °FPassing clouds.No wind66%30.12 "Hg10 mi
3:15 AM45 °FPassing clouds.No wind66%30.13 "Hg10 mi
Weather by CustomWeather, © 2014

See weather overviewHow to use our weather pages